Location: Aubervilles
(48.9167°N, 2.3833°E)
Time: 19:48:04
(UTC+00:00)

Daily predictions for brighter satellites

Satellite Brightness Start Highest point End
(mag) Time Altitude Azimuth Time Altitude Azimuth Time Altitude Azimuth
Cosmos 2219 3.8 17:02:03 10° NNW 17:07:22 37° NE 17:12:40 10° ESE
Helios 1A Rocket 4.1 17:06:32 10° ESE 17:09:45 23° ENE 17:12:59 10° NNE
Cosmos 1110 Rocket 4.3 17:05:59 10° S 17:10:59 46° ESE 17:15:58 10° NNE
Cosmos 1602 Rocket 4.3 17:10:13 10° NNW 17:14:39 60° W 17:19:02 10° S
Cosmos 1943 Rocket 4.1 17:11:24 10° W 17:15:55 25° NW 17:20:27 10° N
Cosmos 44 4.0 17:13:19 10° S 17:17:18 32° ESE 17:21:31 10° NE
Aureole 3 Rocket 4.2 17:15:22 10° SE 17:18:40 24° E 17:22:52 10° NNE
CZ-2C R/B 4.2 17:14:24 10° ESE 17:19:10 28° ENE 17:23:50 10° N
Envisat 3.9 17:15:38 10° S 17:20:36 55° W 17:25:37 10° NNW
Cosmos 1953 Rocket 3.8 17:19:28 10° N 17:23:47 49° ENE 17:28:05 10° SSE
Cosmos 2058 4.4 17:23:15 10° NNE 17:25:55 17° ENE 17:28:35 10° ESE
ATLAS 5 CENTAUR R/B 3.4 17:22:30 10° W 17:26:09 26° NNW 17:30:16 10° NNE
FALCON 9 DEB 3.9 17:23:52 10° WNW 17:27:08 41° N 17:30:07 12° ENE
Cosmos 2058 Rocket 3.9 17:23:22 10° SSE 17:27:14 29° E 17:31:07 10° NNE
YAOGAN 6 4.1 17:25:54 10° S 17:29:23 43° W 17:32:56 10° NNW
CZ-4 R/B 2.3 17:26:11 10° ESE 17:29:26 26° ENE 17:32:39 10° N
CZ-4B R/B 3.9 17:24:44 10° S 17:30:16 61° WSW 17:35:46 10° NNW
Cosmos 1400 Rocket 3.8 17:27:08 10° SSE 17:30:39 28° E 17:34:10 10° NNE
Lacrosse 5 2.9 17:26:02 10° W 17:30:45 37° NNW 17:35:29 10° NE
GENESIS II 4.4 17:27:39 10° SSW 17:31:35 54° SE 17:35:33 10° NE
ADEOS Rocket 3.7 17:26:30 10° N 17:32:44 66° WNW 17:39:39 10° SSW
ERBS 4.1 17:32:12 10° WNW 17:34:57 23° NNW 17:37:43 10° NE
ARGOS 4.4 17:32:35 10° ESE 17:36:34 21° ENE 17:40:34 10° N
USA 281 4.0 17:32:17 10° S 17:38:43 58° WSW 17:45:12 10° NNW
Cosmos 1908 4.4 17:36:15 10° SSW 17:39:57 47° WNW 17:43:44 10° N
Cosmos 1656 4.4 17:37:15 10° SSE 17:42:03 30° ESE 17:46:54 10° NE
Cosmos 2227 Rocket 2.4 17:37:25 10° NNW 17:42:55 49° NE 17:48:23 10° SE
FALCON 9 DEB 3.9 17:40:16 10° SSW 17:43:12 32° SE 17:44:57 19° E
Cosmos 292 Rocket 3.8 17:40:15 10° S 17:44:58 61° ESE 17:49:44 10° NNE
Cosmos 1892 3.5 17:42:25 10° N 17:45:56 31° ENE 17:49:25 10° SE
CZ-4B R/B 1.5 17:44:30 10° N 17:47:45 71° WNW 17:50:53 10° SSW
USA 305 3.3 17:44:06 10° WNW 17:48:19 50° NNE 17:51:12 19° E
FALCON 9 DEB 3.7 17:45:32 10° SSW 17:48:31 37° SE 17:50:05 22° E
Cosmos 2263 Rocket 3.9 17:46:15 10° N 17:49:40 16° NNE 17:51:44 13° ENE
COSMO-SKYMED 1 2.7 17:45:31 10° NNE 17:49:48 54° E 17:54:03 10° S
CSL-04 Rocket 4.3 17:47:36 10° SE 17:52:35 36° ENE 17:57:34 10° N
SL-4 R/B 2.1 17:49:39 10° W 17:53:08 54° N 17:55:22 21° ENE
H-2A R/B 3.9 17:49:38 10° N 17:53:19 30° WNW 17:56:56 10° SW
GEOS 3 Rocket 3.9 17:48:39 12° ESE 17:53:28 51° NE 17:58:41 10° NW
USA 306 3.2 17:50:28 10° WNW 17:54:41 52° NNE 17:57:16 21° E
Timation 2 Rocket 4.3 17:49:21 10° NNW 17:55:57 81° WSW 18:02:46 10° SSE
Cosmos 1346 Rocket 3.5 17:53:19 10° N 17:56:56 31° ENE 17:59:45 14° SE
Cosmos 1076 Rocket 4.5 17:53:58 10° NNE 17:57:30 25° ENE 17:58:50 21° E
H-2A R/B 2.7 17:53:15 10° SE 17:58:12 38° ENE 18:03:12 10° N
Cosmos 1300 2.7 17:55:08 10° S 17:58:57 86° W 18:02:48 10° N
CZ-2D R/B 3.1 17:55:21 10° SSE 17:59:08 68° ENE 18:02:55 10° N
FALCON 9 DEB 3.5 17:56:06 10° SW 17:59:12 42° SE 18:00:24 28° E
Cosmos 1408 3.4 17:57:01 10° N 18:00:14 28° ENE 18:01:19 24° ESE
Okean O Rocket 3.7 17:57:01 10° SSW 18:00:53 30° W 18:04:46 10° NNW
Cosmos 1697 Rocket 3.7 17:58:00 10° SSE 18:02:25 24° ESE 18:04:16 21° ENE
Ariane Rocket 4.4 18:04:42 19° ENE 18:04:57 19° ENE 18:08:24 10° NNE
YAOGAN 1 2.6 18:02:22 10° SSE 18:06:36 55° ENE 18:10:51 10° N
SL-08 ROCKET BODY 4.5 18:02:17 10° N 18:08:18 58° ENE 18:14:22 10° SSE
Cosmos 1825 3.4 18:06:39 10° NNE 18:09:07 24° NE 18:09:07 24° NE
FALCON 9 DEB 3.1 18:08:40 10° SW 18:11:49 55° SSE 18:12:34 42° E
IRS-1C Rocket 4.4 18:08:59 10° S 18:14:13 69° WSW 18:19:31 10° NNW
Meteor 2-8 Rocket 4.3 18:08:41 10° S 18:14:46 76° E 18:20:56 10° NNE
Cosmos 1726 Rocket 4.2 18:14:14 10° SSW 18:18:31 58° WNW 18:22:52 10° N
ERS-2 4.1 18:16:46 10° N 18:19:59 29° WNW 18:23:10 10° SW
Cosmos 1553 Rocket 3.9 18:13:54 10° S 18:20:12 71° E 18:26:28 10° NNE
Cosmos 1689 Rocket 2.4 18:17:24 10° N 18:20:16 62° WNW 18:23:07 10° SSW
Cosmos 2297 Rocket 2.3 18:17:23 10° NNW 18:23:04 78° WSW 18:28:43 10° SSE
Cosmos 1340 3.0 18:19:31 10° NNW 18:23:17 67° W 18:27:02 10° S
NOSS 3-4 (A) 4.3 18:17:48 10° NW 18:24:06 40° NNE 18:27:19 27° E
NOSS 3-4 (C) 4.4 18:17:54 10° NW 18:24:12 40° NNE 18:27:24 27° E
Cosmos 1980 Rocket 4.2 18:20:46 10° SE 18:21:05 11° SE 18:21:05 11° SE
In-Cosmos 22 Rocket 4.2 18:20:30 10° NNW 18:25:52 80° W 18:31:18 10° S
SL-08 RB Rocket 4.5 18:28:46 31° NE 18:28:46 31° NE 18:32:18 10° N
SeaSat 1 2.6 18:29:14 33° ESE 18:31:08 53° NE 18:35:57 10° NNW
CSL-04 Debris 4.1 18:26:14 10° SSE 18:31:37 72° ENE 18:37:06 10° NNW
Okean-O 3.0 18:28:00 10° S 18:32:24 66° WSW 18:36:51 10° NNW
NOSS 3-3 (A) 4.2 18:29:47 10° S 18:35:11 41° ESE 18:36:53 34° E
NOSS 3-3 (C) 4.3 18:29:52 10° S 18:35:18 41° ESE 18:37:00 34° E
Meteor 2-15 Rocket 4.4 18:30:14 10° S 18:36:14 59° E 18:42:17 10° NNE
USA 307 2.8 18:33:03 10° WNW 18:37:20 73° NNE 18:38:09 55° E
SKYMED 2 4.4 18:33:38 10° N 18:37:52 51° WNW 18:42:04 10° SW
USA 215 3.5 18:36:03 31° E 18:39:04 55° NNE 18:45:26 10° WNW
USA 308 2.8 18:37:51 10° WNW 18:42:10 76° NNE 18:42:46 62° E
CRYOSAT 2 4.2 18:37:19 10° N 18:42:12 69° E 18:47:02 10° S
Cosmos 968 Rocket 3.7 18:39:02 10° NNW 18:44:16 72° WSW 18:49:23 10° SSE
Cosmos 1745 Rocket 4.0 18:38:07 10° N 18:44:26 90° E 18:50:47 10° S
Helios 1A Rocket 4.2 18:40:48 10° S 18:44:42 41° W 18:48:37 10° NNW
HJ-1C 4.2 18:46:16 43° N 18:46:16 43° N 18:48:40 10° N
ATLAS 2AS CENTAUR R/B 3.4 18:39:03 10° NW 18:46:19 43° NNE 18:48:35 34° ENE
Cosmos 1455 4.1 18:44:16 10° S 18:45:23 19° S 18:45:23 19° S
Meteor 2-15 4.4 18:42:59 10° S 18:49:09 89° E 18:55:19 10° N
Cosmos 2219 4.2 18:46:11 10° NW 18:51:40 46° WSW 18:57:07 10° S
CZ-4C R/B 3.7 18:49:19 10° NW 18:55:14 33° NNE 18:57:03 29° NE
SJ-11-01 4.4 18:51:59 12° S 18:56:14 75° WSW 19:00:56 10° NNW
MOS 1 Rocket 3.2 18:53:16 10° NNE 18:57:55 86° ESE 19:02:50 10° SSW
Cosmos 44 4.2 18:54:01 10° WSW 18:58:23 44° NW 19:01:00 23° NNE
CZ-2C R/B 3.8 18:53:00 10° S 18:58:42 59° W 19:04:18 10° NNW
Cosmos 220 Rocket 4.0 18:55:45 10° SSW 18:59:40 70° S 18:59:40 70° S
Cosmos 2082 3.7 18:55:30 10° NNW 19:01:16 83° WSW 19:03:45 36° SSE
Cosmos 2058 3.6 18:59:11 10° NNW 19:03:10 52° W 19:06:04 18° SSW
CZ-4 R/B 3.2 19:00:55 10° SSW 19:04:23 30° W 19:07:50 10° NNW
Meteor 2-10 Rocket 3.8 19:03:53 10° SSW 19:09:11 69° WNW 19:14:20 10° N
Cosmos 1503 Rocket 4.1 19:04:36 10° NNW 19:09:49 73° WSW 19:11:33 43° S
ATLAS 5 CENTAUR R/B 4.0 19:09:33 10° NW 19:12:31 16° N 19:13:43 15° NNE
Cosmos 1709 Rocket 3.9 19:07:57 10° N 19:14:22 88° ENE 19:17:52 29° S
Lacrosse 5 2.8 19:10:04 10° WNW 19:14:43 35° N 19:14:46 35° N
Cosmos 2369 3.6 19:09:17 10° SSW 19:14:49 72° SE 19:14:49 72° SE
BREEZE-M R/B 3.9 19:10:48 10° WNW 19:15:20 84° SSW 19:16:54 57° ESE
Timation 1 Rocket 4.2 19:09:18 10° NNW 19:15:22 86° ENE 19:16:23 64° SE
ARGOS 3.3 19:13:21 28° S 19:16:18 73° WSW 19:21:46 10° NNW
Cosmos 1354 Rocket 4.2 19:15:31 10° NNW 19:20:45 68° WSW 19:21:47 54° SSW
Atlas Centaur 2 4.5 19:17:18 10° SW 19:23:00 20° S 19:23:51 20° SSE
Cosmos 1656 4.4 19:20:01 10° SW 19:25:26 50° NW 19:29:34 18° NNE
Cosmos 2227 Rocket 3.8 19:21:49 10° NW 19:26:46 32° WSW 19:31:42 10° SSW
USA 305 4.0 19:24:13 10° WNW 19:27:20 43° W 19:27:20 43° W
Cosmos 883 Rocket 4.5 19:25:40 10° SSW 19:31:50 78° W 19:37:59 10° N
Cosmos 2315 Rocket 3.8 19:26:27 10° S 19:32:40 89° E 19:38:54 10° N
SL-4 R/B 3.9 19:29:15 10° WNW 19:30:57 26° WNW 19:30:57 26° WNW
USA 306 4.3 19:30:35 10° WNW 19:33:25 37° W 19:33:25 37° W
Cosmos 2263 Rocket 2.8 19:29:15 10° NNW 19:33:26 45° N 19:33:26 45° N
Cosmos 1992 Rocket 4.5 19:30:29 10° SW 19:35:36 58° WNW 19:36:36 49° NNW
H-2A R/B 3.5 19:32:35 10° SSW 19:37:35 38° W 19:42:41 10° NNW
Ariane Rocket 3.8 19:44:55 45° NNW 19:44:55 45° NNW 19:48:29 10° NNW
Cosmos 1697 Rocket 3.0 19:40:23 10° SW 19:45:56 62° WNW 19:46:05 62° NW
SeaSat 1 4.2 20:09:02 27° WSW 20:09:02 27° WSW 20:13:06 10° NW
NOSS 3-4 (A) 4.0 20:08:37 10° NW 20:14:46 68° W 20:14:46 68° W
NOSS 3-4 (C) 4.0 20:08:44 10° NW 20:14:51 67° W 20:14:51 67° W
USA 215 3.7 20:23:24 56° WNW 20:23:24 56° WNW 20:28:32 10° WNW
ATLAS 2AS CENTAUR R/B 3.4 20:30:21 10° NW 20:36:01 52° WNW 20:36:01 52° WNW
CZ-4C R/B 3.7 20:37:44 10° NW 20:42:14 45° NNW 20:42:14 45° NNW
